• Em Portugal
  • Lista de países
  • Para 7 dias
  • Temperatura da água
  • Mapas de satélite
  • Mapa do tempo
  • Widgets de tempo
  • user-avatar
    Iniciar Sessão

    Previsão horária em Dalandzadgad

    Hoje, 23 Junho, Sábado

    Tempo Temperatura Precipitação Vento Pressão Humidade
    00:00 +29°C° 0 mm 6 m/s 632 mmHg 23%
    01:00 +28°C° 0 mm 6 m/s 632 mmHg 24%
    02:00 +27°C° 0 mm 5 m/s 632 mmHg 26%
    03:00 +26°C° 0 mm 5 m/s 632 mmHg 28%
    04:00 +26°C° 0 mm 4 m/s 632 mmHg 30%
    05:00 +26°C° 0 mm 5 m/s 632 mmHg 31%
    06:00 +26°C° 0 mm 5 m/s 632 mmHg 32%
    07:00 +24°C° 0 mm 6 m/s 632 mmHg 44%
    08:00 +25°C° 0,3 mm 5 m/s 632 mmHg 44%
    09:00 +25°C° 0,3 mm 5 m/s 632 mmHg 43%
    10:00 +25°C° 0,3 mm 5 m/s 632 mmHg 43%
    11:00 +26°C° 0,1 mm 5 m/s 632 mmHg 40%
    12:00 +27°C° 0,1 mm 6 m/s 633 mmHg 38%
    13:00 +26°C° 0 mm 6 m/s 633 mmHg 43%
    14:00 +26°C° 0,2 mm 6 m/s 633 mmHg 44%
    15:00 +24°C° 0,2 mm 6 m/s 632 mmHg 46%
    16:00 +24°C° 0,2 mm 6 m/s 632 mmHg 47%
    17:00 +24°C° 0,1 mm 6 m/s 632 mmHg 46%
    18:00 +26°C° 0,1 mm 6 m/s 632 mmHg 45%
    19:00 +26°C° 0 mm 4 m/s 632 mmHg 46%
    20:00 +25°C° 0,4 mm 5 m/s 632 mmHg 48%
    21:00 +25°C° 0,4 mm 5 m/s 632 mmHg 51%
    22:00 +23°C° 0,4 mm 5 m/s 632 mmHg 53%
    23:00 +22°C° 0,4 mm 5 m/s 632 mmHg 58%

    Amanhã, 24 Junho, Domingo

    Tempo Temperatura Precipitação Vento Pressão Humidade
    00:00 +21°C° 0,4 mm 4 m/s 632 mmHg 63%
    01:00 +20°C° 0,4 mm 4 m/s 631 mmHg 68%
    02:00 +19°C° 0,2 mm 4 m/s 631 mmHg 71%
    03:00 +18°C° 0,2 mm 4 m/s 631 mmHg 74%
    04:00 +18°C° 0,2 mm 4 m/s 631 mmHg 77%
    05:00 +18°C° 0,1 mm 4 m/s 631 mmHg 74%
    06:00 +18°C° 0,1 mm 4 m/s 631 mmHg 72%
    07:00 +18°C° 0,1 mm 4 m/s 632 mmHg 70%
    08:00 +19°C° 0,1 mm 4 m/s 632 mmHg 64%
    09:00 +20°C° 0,1 mm 4 m/s 632 mmHg 58%
    10:00 +21°C° 0,1 mm 4 m/s 633 mmHg 53%
    11:00 +22°C° 0,3 mm 3 m/s 633 mmHg 48%
    12:00 +24°C° 0,3 mm 3 m/s 633 mmHg 44%
    13:00 +25°C° 0,3 mm 3 m/s 633 mmHg 40%
    14:00 +25°C° 0,2 mm 3 m/s 633 mmHg 38%
    15:00 +26°C° 0,2 mm 3 m/s 633 mmHg 36%
    16:00 +26°C° 0,2 mm 3 m/s 633 mmHg 33%
    17:00 +26°C° 0 mm 4 m/s 633 mmHg 33%
    18:00 +26°C° 0 mm 4 m/s 633 mmHg 33%
    19:00 +26°C° 0 mm 5 m/s 633 mmHg 32%
    20:00 +25°C° 0 mm 5 m/s 633 mmHg 32%
    21:00 +25°C° 0 mm 5 m/s 633 mmHg 32%
    22:00 +23°C° 0 mm 6 m/s 634 mmHg 32%
    23:00 +23°C° 0 mm 5 m/s 633 mmHg 32%

    Depois de amanhã, 25 Junho, Segunda-feira

    Tempo Temperatura Precipitação Vento Pressão Humidade
    00:00 +22°C° 0 mm 5 m/s 633 mmHg 33%
    01:00 +22°C° 0 mm 5 m/s 633 mmHg 33%
    02:00 +21°C° 0 mm 4 m/s 633 mmHg 35%
    03:00 +20°C° 0 mm 4 m/s 633 mmHg 36%
    04:00 +20°C° 0 mm 3 m/s 633 mmHg 38%
    05:00 +20°C° 0 mm 3 m/s 633 mmHg 37%
    06:00 +21°C° 0 mm 3 m/s 633 mmHg 35%
    07:00 +21°C° 0 mm 3 m/s 633 mmHg 34%
    08:00 +22°C° 0 mm 3 m/s 634 mmHg 32%
    09:00 +24°C° 0 mm 3 m/s 634 mmHg 30%
    10:00 +24°C° 0 mm 3 m/s 634 mmHg 28%
    11:00 +25°C° 0 mm 3 m/s 634 mmHg 25%
    12:00 +26°C° 0 mm 3 m/s 634 mmHg 22%
    13:00 +27°C° 0 mm 4 m/s 634 mmHg 20%
    14:00 +28°C° 0 mm 4 m/s 634 mmHg 19%
    15:00 +28°C° 0 mm 4 m/s 634 mmHg 18%
    16:00 +29°C° 0 mm 5 m/s 634 mmHg 18%
    17:00 +28°C° 0 mm 5 m/s 634 mmHg 18%
    18:00 +28°C° 0 mm 5 m/s 634 mmHg 19%
    19:00 +28°C° 0 mm 6 m/s 635 mmHg 20%
    20:00 +27°C° 0 mm 5 m/s 635 mmHg 21%
    21:00 +27°C° 0 mm 5 m/s 635 mmHg 23%
    22:00 +26°C° 0 mm 4 m/s 635 mmHg 25%
    23:00 +26°C° 0,1 mm 4 m/s 635 mmHg 27%

    26 Junho, Terça-feira

    Tempo Temperatura Precipitação Vento Pressão Humidade
    00:00 +25°C° 0,1 mm 4 m/s 635 mmHg 30%
    01:00 +24°C° 0,1 mm 3 m/s 635 mmHg 32%
    02:00 +22°C° 0,1 mm 3 m/s 635 mmHg 34%
    03:00 +21°C° 0,1 mm 3 m/s 635 mmHg 37%
    04:00 +21°C° 0,1 mm 3 m/s 635 mmHg 39%
    05:00 +21°C° 0 mm 4 m/s 635 mmHg 39%
    06:00 +21°C° 0 mm 4 m/s 635 mmHg 39%
    07:00 +22°C° 0 mm 4 m/s 636 mmHg 39%
    08:00 +22°C° 0 mm 5 m/s 636 mmHg 36%
    09:00 +23°C° 0 mm 5 m/s 636 mmHg 34%
    10:00 +24°C° 0 mm 6 m/s 637 mmHg 31%
    11:00 +26°C° 0 mm 6 m/s 637 mmHg 29%
    12:00 +27°C° 0 mm 6 m/s 637 mmHg 26%
    13:00 +27°C° 0 mm 7 m/s 637 mmHg 24%
    14:00 +28°C° 0 mm 7 m/s 637 mmHg 23%
    15:00 +28°C° 0 mm 8 m/s 637 mmHg 22%
    16:00 +28°C° 0 mm 8 m/s 636 mmHg 20%
    17:00 +28°C° 0 mm 8 m/s 636 mmHg 21%
    18:00 +27°C° 0 mm 8 m/s 636 mmHg 21%
    19:00 +27°C° 0 mm 8 m/s 636 mmHg 21%
    20:00 +26°C° 0 mm 8 m/s 637 mmHg 23%
    21:00 +24°C° 0 mm 7 m/s 637 mmHg 25%
    22:00 +23°C° 0 mm 7 m/s 637 mmHg 27%
    23:00 +23°C° 0 mm 6 m/s 637 mmHg 31%

    27 Junho, Quarta-feira

    Tempo Temperatura Precipitação Vento Pressão Humidade
    00:00 +22°C° 0 mm 6 m/s 637 mmHg 36%
    01:00 +21°C° 0 mm 6 m/s 637 mmHg 40%
    02:00 +20°C° 0 mm 6 m/s 637 mmHg 42%
    03:00 +19°C° 0 mm 5 m/s 637 mmHg 45%
    04:00 +19°C° 0 mm 5 m/s 637 mmHg 47%
    05:00 +19°C° 0 mm 5 m/s 637 mmHg 45%
    06:00 +19°C° 0 mm 5 m/s 637 mmHg 43%
    07:00 +20°C° 0 mm 6 m/s 638 mmHg 41%
    08:00 +21°C° 0 mm 6 m/s 638 mmHg 37%
    09:00 +22°C° 0 mm 7 m/s 638 mmHg 34%
    10:00 +23°C° 0 mm 7 m/s 639 mmHg 31%
    11:00 +24°C° 0 mm 7 m/s 638 mmHg 27%
    12:00 +26°C° 0 mm 7 m/s 638 mmHg 24%
    13:00 +27°C° 0 mm 6 m/s 638 mmHg 21%
    14:00 +27°C° 0 mm 6 m/s 638 mmHg 19%
    15:00 +28°C° 0 mm 6 m/s 638 mmHg 18%
    16:00 +28°C° 0 mm 6 m/s 638 mmHg 17%
    17:00 +28°C° 0 mm 5 m/s 638 mmHg 17%
    18:00 +28°C° 0 mm 5 m/s 637 mmHg 17%
    19:00 +28°C° 0 mm 5 m/s 637 mmHg 17%
    20:00 +27°C° 0 mm 4 m/s 637 mmHg 19%
    21:00 +26°C° 0 mm 3 m/s 637 mmHg 20%
    22:00 +26°C° 0 mm 2 m/s 637 mmHg 21%
    23:00 +25°C° 0 mm 1 m/s 637 mmHg 22%

    28 Junho, Quinta-feira

    Tempo Temperatura Precipitação Vento Pressão Humidade
    00:00 +24°C° 0 mm 1 m/s 637 mmHg 24%
    01:00 +24°C° 0 mm 1 m/s 636 mmHg 25%
    02:00 +23°C° 0 mm 1 m/s 636 mmHg 25%
    03:00 +23°C° 0 mm 1 m/s 636 mmHg 26%
    04:00 +22°C° 0 mm 1 m/s 635 mmHg 27%
    05:00 +23°C° 0 mm 1 m/s 636 mmHg 25%
    06:00 +24°C° 0 mm 2 m/s 636 mmHg 22%
    07:00 +25°C° 0 mm 2 m/s 636 mmHg 20%
    08:00 +26°C° 0 mm 2 m/s 636 mmHg 20%
    09:00 +27°C° 0 mm 2 m/s 636 mmHg 19%
    10:00 +28°C° 0 mm 1 m/s 636 mmHg 18%
    11:00 +29°C° 0 mm 1 m/s 636 mmHg 18%
    12:00 +29°C° 0 mm 1 m/s 636 mmHg 17%
    13:00 +30°C° 0 mm 1 m/s 636 mmHg 16%
    14:00 +31°C° 0 mm 1 m/s 636 mmHg 16%
    15:00 +31°C° 0 mm 2 m/s 635 mmHg 15%
    16:00 +32°C° 0 mm 2 m/s 635 mmHg 15%
    17:00 +31°C° 0 mm 2 m/s 635 mmHg 15%
    18:00 +31°C° 0 mm 2 m/s 635 mmHg 16%
    19:00 +31°C° 0 mm 2 m/s 635 mmHg 16%
    20:00 +31°C° 0 mm 2 m/s 634 mmHg 17%
    21:00 +30°C° 0 mm 2 m/s 634 mmHg 18%
    22:00 +30°C° 0 mm 2 m/s 634 mmHg 19%
    23:00 +29°C° 0 mm 2 m/s 634 mmHg 19%
    Mostrar mais